Zurück zum Katalog

STARLINK-36516

AktivKommunikationVLEO
NORAD 67455·PAYLOAD·🇺🇸 United States

Gestartet Jan 14, 2026 von Cape Canaveral Space Force Station

Loading…

Nächste Überflüge (nächste 24 Stunden)

TLE

AktuellSource: CelesTrak SupGP

Epoche: Sep 14, 2026, 14:43 UTC

1 67455C 26008L   26257.61368056 -.00025980  00000+0 -94133-3 0  2575
2 67455  42.9999 218.0854 0001314 264.2476 251.5311 15.27579139    17

Verfolge STARLINK-36516 in Echtzeit mit AllMySat

Download on the App Store